Time,TemperatureF,DewpointF,PressureIn,WindDirection,WindDirectionDegrees,WindSpeedMPH,WindSpeedGustMPH,Humidity,HourlyPrecipIn,Conditions,Clouds,dailyrainin,SolarRadiationWatts/m^2,SoftwareType,DateUTC
2013-07-07 00:02:00,53.8,51.8,29.73,SW,225,3.0,13.0,93,0.00,,,0.00,0.0,meteohub,2013-07-07 07:02:00,
2013-07-07 00:07:00,53.8,51.8,29.73,WSW,257,2.0,12.0,93,0.00,,,0.00,0.0,meteohub,2013-07-07 07:07:00,
2013-07-07 00:12:00,53.8,51.8,29.73,SSW,209,1.0,12.0,93,0.00,,,0.00,0.0,meteohub,2013-07-07 07:12:00,
2013-07-07 00:17:00,53.8,51.8,29.73,SW,218,4.0,12.0,93,0.00,,,0.00,0.0,meteohub,2013-07-07 07:17:00,
2013-07-07 00:22:00,53.8,52.2,29.73,SW,225,3.0,12.0,94,0.00,,,0.00,0.0,meteohub,2013-07-07 07:22:00,
2013-07-07 00:27:00,53.6,52.0,29.73,West,281,2.0,12.0,94,0.00,,,0.00,0.0,meteohub,2013-07-07 07:27:00,
2013-07-07 00:32:00,53.4,51.8,29.73,West,279,5.0,10.0,94,0.00,,,0.00,0.0,meteohub,2013-07-07 07:32:00,
2013-07-07 00:37:00,53.4,51.8,29.73,SW,236,5.0,11.0,94,0.00,,,0.00,0.0,meteohub,2013-07-07 07:37:00,
2013-07-07 00:42:00,53.4,51.8,29.73,WNW,284,2.0,11.0,94,0.00,,,0.00,0.0,meteohub,2013-07-07 07:42:00,
2013-07-07 00:47:00,53.4,51.8,29.73,WSW,237,1.0,10.0,94,0.00,,,0.00,0.0,meteohub,2013-07-07 07:47:00,
2013-07-07 00:52:00,53.2,51.6,29.73,WNW,288,2.0,9.0,94,0.00,,,0.00,0.0,meteohub,2013-07-07 07:52:00,
2013-07-07 00:57:00,53.2,51.6,29.73,SW,236,4.0,9.0,94,0.00,,,0.00,0.0,meteohub,2013-07-07 07:57:00,
2013-07-07 01:02:00,53.2,51.6,29.73,West,266,0.0,9.0,94,0.00,,,0.00,0.0,meteohub,2013-07-07 08:02:00,
2013-07-07 01:07:00,53.2,51.6,29.73,West,281,0.0,9.0,94,0.00,,,0.00,0.0,meteohub,2013-07-07 08:07:00,
2013-07-07 01:12:00,53.2,51.6,29.73,SW,234,1.0,9.0,94,0.00,,,0.00,0.0,meteohub,2013-07-07 08:12:00,
2013-07-07 01:17:00,53.2,51.6,29.73,SSW,212,4.0,6.0,94,0.00,,,0.00,0.0,meteohub,2013-07-07 08:17:00,
2013-07-07 01:22:00,53.2,51.8,29.73,WNW,299,0.0,8.0,95,0.00,,,0.00,0.0,meteohub,2013-07-07 08:22:00,
2013-07-07 01:27:00,53.2,51.8,29.73,West,261,1.0,8.0,95,0.00,,,0.00,0.0,meteohub,2013-07-07 08:27:00,
2013-07-07 01:32:00,53.2,51.8,29.73,WNW,282,2.0,8.0,95,0.00,,,0.00,0.0,meteohub,2013-07-07 08:32:00,
2013-07-07 01:37:00,53.2,51.8,29.73,NW,307,5.0,6.0,95,0.00,,,0.00,0.0,meteohub,2013-07-07 08:37:00,
2013-07-07 01:42:00,53.2,51.8,29.73,WNW,300,5.0,6.0,95,0.00,,,0.00,0.0,meteohub,2013-07-07 08:42:00,
2013-07-07 01:47:00,53.4,52.0,29.73,WNW,302,6.0,10.0,95,0.00,,,0.00,0.0,meteohub,2013-07-07 08:47:00,
2013-07-07 01:52:00,53.4,52.0,29.73,West,278,3.0,10.0,95,0.00,,,0.00,0.0,meteohub,2013-07-07 08:52:00,
2013-07-07 01:57:00,53.6,52.0,29.73,West,277,4.0,10.0,94,0.00,,,0.00,0.0,meteohub,2013-07-07 08:57:00,
2013-07-07 02:02:00,53.8,52.3,29.73,WNW,296,3.0,10.0,95,0.00,,,0.00,0.0,meteohub,2013-07-07 09:02:00,
2013-07-07 02:07:00,53.8,52.2,29.73,SW,229,7.0,10.0,94,0.00,,,0.00,0.0,meteohub,2013-07-07 09:07:00,
2013-07-07 02:12:00,54.0,52.3,29.73,WNW,294,1.0,10.0,94,0.00,,,0.00,0.0,meteohub,2013-07-07 09:12:00,
2013-07-07 02:17:00,54.0,52.3,29.73,SW,217,3.0,10.0,94,0.00,,,0.00,0.0,meteohub,2013-07-07 09:17:00,
2013-07-07 02:22:00,54.0,52.3,29.73,WSW,257,1.0,9.0,94,0.00,,,0.00,0.0,meteohub,2013-07-07 09:22:00,
2013-07-07 02:27:00,54.0,52.3,29.73,West,281,4.0,9.0,94,0.00,,,0.00,0.0,meteohub,2013-07-07 09:27:00,
2013-07-07 02:32:00,54.0,52.3,29.73,West,270,4.0,9.0,94,0.00,,,0.00,0.0,meteohub,2013-07-07 09:32:00,
2013-07-07 02:37:00,54.0,52.3,29.73,SW,219,3.0,13.0,94,0.00,,,0.00,0.0,meteohub,2013-07-07 09:37:00,
2013-07-07 02:42:00,54.0,52.3,29.73,West,277,5.0,13.0,94,0.00,,,0.00,0.0,meteohub,2013-07-07 09:42:00,
2013-07-07 02:47:00,54.0,52.0,29.73,SW,236,5.0,13.0,93,0.00,,,0.00,0.0,meteohub,2013-07-07 09:47:00,
2013-07-07 02:53:00,53.8,51.8,29.73,SW,217,5.0,13.0,93,0.00,,,0.00,0.0,meteohub,2013-07-07 09:53:00,
2013-07-07 02:58:00,53.8,51.8,29.73,West,261,5.0,11.0,93,0.00,,,0.00,0.0,meteohub,2013-07-07 09:58:00,
2013-07-07 03:03:00,53.8,51.8,29.73,WNW,289,4.0,11.0,93,0.00,,,0.00,0.0,meteohub,2013-07-07 10:03:00,
2013-07-07 03:08:00,53.8,52.2,29.73,SW,217,11.0,11.0,94,0.00,,,0.00,0.0,meteohub,2013-07-07 10:08:00,
2013-07-07 03:13:00,53.8,52.2,29.73,WSW,246,5.0,11.0,94,0.00,,,0.00,0.0,meteohub,2013-07-07 10:13:00,
2013-07-07 03:18:00,53.6,52.0,29.73,WSW,254,5.0,11.0,94,0.00,,,0.00,0.0,meteohub,2013-07-07 10:18:00,
2013-07-07 03:23:00,53.6,51.6,29.73,West,268,4.0,12.0,93,0.00,,,0.00,0.0,meteohub,2013-07-07 10:23:00,
2013-07-07 03:28:00,53.4,51.8,29.73,WSW,248,3.0,12.0,94,0.00,,,0.00,0.0,meteohub,2013-07-07 10:28:00,
2013-07-07 03:33:00,53.6,52.0,29.73,West,267,3.0,12.0,94,0.00,,,0.00,0.0,meteohub,2013-07-07 10:33:00,
2013-07-07 03:38:00,53.6,51.6,29.73,WNW,284,3.0,10.0,93,0.00,,,0.00,0.0,meteohub,2013-07-07 10:38:00,
2013-07-07 03:43:00,53.6,51.6,29.73,WNW,285,1.0,9.0,93,0.00,,,0.00,0.0,meteohub,2013-07-07 10:43:00,
2013-07-07 03:48:00,53.6,51.6,29.73,WSW,256,5.0,9.0,93,0.00,,,0.00,0.0,meteohub,2013-07-07 10:48:00,
2013-07-07 03:53:00,53.6,51.6,29.73,West,281,1.0,9.0,93,0.00,,,0.00,0.0,meteohub,2013-07-07 10:53:00,
2013-07-07 03:58:00,53.8,51.8,29.73,SW,220,5.0,9.0,93,0.00,,,0.00,0.0,meteohub,2013-07-07 10:58:00,
2013-07-07 04:03:00,53.6,51.6,29.73,WNW,302,4.0,9.0,93,0.00,,,0.00,0.0,meteohub,2013-07-07 11:03:00,
2013-07-07 04:08:00,53.8,51.8,29.73,West,261,0.0,9.0,93,0.00,,,0.00,0.0,meteohub,2013-07-07 11:08:00,
2013-07-07 04:13:00,53.8,51.8,29.73,WNW,293,3.0,7.0,93,0.00,,,0.00,0.0,meteohub,2013-07-07 11:13:00,
2013-07-07 04:18:00,53.8,51.8,29.73,WNW,283,5.0,10.0,93,0.00,,,0.00,0.0,meteohub,2013-07-07 11:18:00,
2013-07-07 04:23:00,53.8,51.8,29.73,WNW,290,5.0,10.0,93,0.00,,,0.00,0.0,meteohub,2013-07-07 11:23:00,
2013-07-07 04:28:00,53.4,51.4,29.73,WNW,296,7.0,10.0,93,0.00,,,0.00,0.0,meteohub,2013-07-07 11:28:00,
2013-07-07 04:33:00,53.4,51.4,29.73,West,279,6.0,10.0,93,0.00,,,0.00,0.0,meteohub,2013-07-07 11:33:00,
2013-07-07 04:38:00,53.4,51.4,29.73,WNW,294,4.0,10.0,93,0.00,,,0.00,0.0,meteohub,2013-07-07 11:38:00,
2013-07-07 04:43:00,53.2,51.3,29.73,West,279,4.0,10.0,93,0.00,,,0.00,0.0,meteohub,2013-07-07 11:43:00,
2013-07-07 04:48:00,53.2,51.3,29.73,WNW,299,5.0,10.0,93,0.00,,,0.00,0.0,meteohub,2013-07-07 11:48:00,
2013-07-07 04:53:00,53.2,51.3,29.73,WNW,303,6.0,9.0,93,0.00,,,0.00,0.0,meteohub,2013-07-07 11:53:00,
2013-07-07 04:58:00,53.2,51.3,29.73,WNW,296,7.0,9.0,93,0.00,,,0.00,0.0,meteohub,2013-07-07 11:58:00,
2013-07-07 05:03:00,53.2,51.3,29.73,WNW,300,4.0,8.0,93,0.00,,,0.00,0.0,meteohub,2013-07-07 12:03:00,
2013-07-07 05:08:00,53.2,51.3,29.73,West,273,6.0,9.0,93,0.00,,,0.00,0.0,meteohub,2013-07-07 12:08:00,
2013-07-07 05:13:00,53.2,51.3,29.73,WNW,300,3.0,9.0,93,0.00,,,0.00,0.0,meteohub,2013-07-07 12:13:00,
2013-07-07 05:18:00,53.2,51.3,29.73,WNW,285,2.0,9.0,93,0.00,,,0.00,0.0,meteohub,2013-07-07 12:18:00,
2013-07-07 05:23:00,53.2,51.3,29.74,WNW,303,3.0,9.0,93,0.00,,,0.00,0.0,meteohub,2013-07-07 12:23:00,
2013-07-07 05:28:00,53.2,51.3,29.74,NW,304,4.0,7.0,93,0.00,,,0.00,0.0,meteohub,2013-07-07 12:28:00,
2013-07-07 05:33:00,53.2,51.3,29.74,WNW,282,3.0,9.0,93,0.00,,,0.00,0.0,meteohub,2013-07-07 12:33:00,
2013-07-07 05:38:00,53.2,51.3,29.74,West,279,5.0,9.0,93,0.00,,,0.00,0.0,meteohub,2013-07-07 12:38:00,
2013-07-07 05:43:00,53.2,51.3,29.74,WNW,288,1.0,9.0,93,0.00,,,0.00,0.0,meteohub,2013-07-07 12:43:00,
2013-07-07 05:48:00,53.2,51.3,29.74,WNW,286,4.0,7.0,93,0.00,,,0.00,0.0,meteohub,2013-07-07 12:48:00,
2013-07-07 05:53:00,53.2,51.3,29.74,WNW,293,0.0,10.0,93,0.00,,,0.00,0.0,meteohub,2013-07-07 12:53:00,
2013-07-07 05:58:00,53.2,51.3,29.74,West,267,3.0,10.0,93,0.00,,,0.00,0.0,meteohub,2013-07-07 12:58:00,
2013-07-07 06:03:00,53.2,51.3,29.75,WNW,297,3.0,10.0,93,0.00,,,0.00,5.0,meteohub,2013-07-07 13:03:00,
2013-07-07 06:08:00,53.2,51.3,29.75,WNW,294,2.0,8.0,93,0.00,,,0.00,7.0,meteohub,2013-07-07 13:08:00,
2013-07-07 06:13:00,53.4,51.4,29.75,WNW,290,1.0,7.0,93,0.00,,,0.00,9.0,meteohub,2013-07-07 13:13:00,
2013-07-07 06:18:00,53.4,51.4,29.75,SW,220,3.0,7.0,93,0.00,,,0.00,9.0,meteohub,2013-07-07 13:18:00,
2013-07-07 06:23:00,53.4,51.4,29.75,WNW,302,0.0,7.0,93,0.00,,,0.00,12.0,meteohub,2013-07-07 13:23:00,
2013-07-07 06:28:00,53.4,51.4,29.75,WSW,242,0.0,7.0,93,0.00,,,0.00,18.0,meteohub,2013-07-07 13:28:00,
2013-07-07 06:33:00,53.4,51.4,29.75,WSW,252,1.0,5.0,93,0.00,,,0.00,26.0,meteohub,2013-07-07 13:33:00,
2013-07-07 06:38:00,53.6,51.6,29.75,SW,221,4.0,5.0,93,0.00,,,0.00,28.0,meteohub,2013-07-07 13:38:00,
2013-07-07 06:43:00,53.8,51.4,29.75,WSW,255,1.0,6.0,92,0.00,,,0.00,32.0,meteohub,2013-07-07 13:43:00,
2013-07-07 06:48:00,53.8,51.4,29.75,West,261,0.0,7.0,92,0.00,,,0.00,33.0,meteohub,2013-07-07 13:48:00,
2013-07-07 06:53:00,53.8,51.4,29.75,SW,217,2.0,7.0,92,0.00,,,0.00,39.0,meteohub,2013-07-07 13:53:00,
2013-07-07 06:58:00,53.8,51.4,29.75,WSW,238,0.0,7.0,92,0.00,,,0.00,47.0,meteohub,2013-07-07 13:58:00,
2013-07-07 07:03:00,54.0,51.6,29.76,West,263,2.0,7.0,92,0.00,,,0.00,49.0,meteohub,2013-07-07 14:03:00,
2013-07-07 07:08:00,54.0,51.6,29.75,WSW,248,3.0,9.0,92,0.00,,,0.00,54.0,meteohub,2013-07-07 14:08:00,
2013-07-07 07:13:00,54.0,51.6,29.76,WSW,244,3.0,10.0,92,0.00,,,0.00,58.0,meteohub,2013-07-07 14:13:00,
2013-07-07 07:18:00,54.1,51.8,29.76,West,266,3.0,11.0,92,0.00,,,0.00,67.0,meteohub,2013-07-07 14:18:00,
2013-07-07 07:19:00,54.1,51.8,29.76,WSW,248,1.0,11.0,92,0.00,,,0.00,67.0,meteohub,2013-07-07 14:19:00,
2013-07-07 07:24:00,54.1,51.8,29.76,West,263,1.0,11.0,92,0.00,,,0.00,70.0,meteohub,2013-07-07 14:24:00,
2013-07-07 07:29:00,54.1,51.8,29.76,WNW,288,2.0,11.0,92,0.00,,,0.00,74.0,meteohub,2013-07-07 14:29:00,
2013-07-07 07:34:00,54.1,51.8,29.76,NW,320,2.0,11.0,92,0.00,,,0.00,79.0,meteohub,2013-07-07 14:34:00,
2013-07-07 07:39:00,54.3,52.0,29.76,WSW,240,5.0,10.0,92,0.00,,,0.00,84.0,meteohub,2013-07-07 14:39:00,
2013-07-07 07:44:00,54.3,51.8,29.76,WSW,252,3.0,10.0,91,0.00,,,0.00,91.0,meteohub,2013-07-07 14:44:00,
2013-07-07 07:49:00,54.7,52.2,29.76,West,278,3.0,10.0,91,0.00,,,0.00,98.0,meteohub,2013-07-07 14:49:00,
2013-07-07 07:54:00,54.7,52.2,29.77,WNW,299,2.0,9.0,91,0.00,,,0.00,105.0,meteohub,2013-07-07 14:54:00,
2013-07-07 07:59:00,54.9,52.3,29.77,WNW,292,0.0,8.0,91,0.00,,,0.00,114.0,meteohub,2013-07-07 14:59:00,
2013-07-07 08:04:00,55.0,52.5,29.77,SSW,208,4.0,8.0,91,0.00,,,0.00,116.0,meteohub,2013-07-07 15:04:00,
2013-07-07 08:09:00,54.9,52.3,29.77,NNW,338,3.0,9.0,91,0.00,,,0.00,123.0,meteohub,2013-07-07 15:09:00,
2013-07-07 08:14:00,55.0,52.5,29.78,WSW,248,2.0,9.0,91,0.00,,,0.00,139.0,meteohub,2013-07-07 15:14:00,
2013-07-07 08:19:00,55.0,52.5,29.77,West,269,0.0,9.0,91,0.00,,,0.00,148.0,meteohub,2013-07-07 15:19:00,
2013-07-07 08:24:00,55.4,52.5,29.78,WNW,292,4.0,7.0,90,0.00,,,0.00,158.0,meteohub,2013-07-07 15:24:00,
2013-07-07 08:29:00,55.6,52.7,29.78,SW,236,3.0,7.0,90,0.00,,,0.00,158.0,meteohub,2013-07-07 15:29:00,
2013-07-07 08:34:00,55.8,52.9,29.78,WNW,302,2.0,7.0,90,0.00,,,0.00,172.0,meteohub,2013-07-07 15:34:00,
2013-07-07 08:39:00,55.9,52.7,29.78,WSW,248,6.0,6.0,89,0.00,,,0.00,185.0,meteohub,2013-07-07 15:39:00,
2013-07-07 08:44:00,56.1,52.9,29.78,West,279,0.0,10.0,89,0.00,,,0.00,211.0,meteohub,2013-07-07 15:44:00,
2013-07-07 08:45:00,56.1,52.9,29.78,West,279,1.0,10.0,89,0.00,,,0.00,213.0,meteohub,2013-07-07 15:45:00,
2013-07-07 08:50:00,56.3,52.9,29.78,WSW,238,2.0,10.0,88,0.00,,,0.00,221.0,meteohub,2013-07-07 15:50:00,
2013-07-07 08:55:00,56.3,52.9,29.78,SW,233,3.0,10.0,88,0.00,,,0.00,227.0,meteohub,2013-07-07 15:55:00,
2013-07-07 09:00:00,56.8,53.1,29.78,WSW,240,3.0,7.0,87,0.00,,,0.00,241.0,meteohub,2013-07-07 16:00:00,
2013-07-07 09:05:00,56.8,53.1,29.78,WNW,290,3.0,7.0,87,0.00,,,0.00,251.0,meteohub,2013-07-07 16:05:00,
2013-07-07 09:10:00,56.7,52.9,29.78,WSW,253,2.0,7.0,87,0.00,,,0.00,267.0,meteohub,2013-07-07 16:10:00,
2013-07-07 09:15:00,56.8,53.1,29.78,West,274,4.0,7.0,87,0.00,,,0.00,294.0,meteohub,2013-07-07 16:15:00,
2013-07-07 09:20:00,56.8,53.1,29.78,SW,231,6.0,7.0,87,0.00,,,0.00,316.0,meteohub,2013-07-07 16:20:00,
2013-07-07 09:25:00,57.0,53.2,29.78,WNW,293,3.0,7.0,87,0.00,,,0.00,332.0,meteohub,2013-07-07 16:25:00,
2013-07-07 09:30:00,57.2,53.1,29.78,WSW,239,10.0,10.0,86,0.00,,,0.00,380.0,meteohub,2013-07-07 16:30:00,
2013-07-07 09:35:00,57.4,53.2,29.78,WNW,295,1.0,10.0,86,0.00,,,0.00,413.0,meteohub,2013-07-07 16:35:00,
2013-07-07 09:40:00,57.9,53.4,29.78,SW,234,5.0,10.0,85,0.00,,,0.00,424.0,meteohub,2013-07-07 16:40:00,
2013-07-07 09:45:00,57.7,53.2,29.78,WNW,293,2.0,10.0,85,0.00,,,0.00,441.0,meteohub,2013-07-07 16:45:00,
2013-07-07 09:50:00,57.9,53.4,29.78,WSW,244,5.0,10.0,85,0.00,,,0.00,461.0,meteohub,2013-07-07 16:50:00,
2013-07-07 09:55:00,58.5,54.0,29.78,WSW,238,0.0,10.0,85,0.00,,,0.00,496.0,meteohub,2013-07-07 16:55:00,
2013-07-07 10:00:00,58.8,53.6,29.78,WSW,258,1.0,7.0,83,0.00,,,0.00,443.0,meteohub,2013-07-07 17:00:00,
2013-07-07 10:05:00,59.4,54.1,29.78,WNW,284,3.0,7.0,83,0.00,,,0.00,786.0,meteohub,2013-07-07 17:05:00,
2013-07-07 10:10:00,59.9,54.1,29.78,NW,312,0.0,9.0,81,0.00,,,0.00,710.0,meteohub,2013-07-07 17:10:00,
2013-07-07 10:15:00,60.3,54.1,29.77,SW,221,2.0,10.0,80,0.00,,,0.00,770.0,meteohub,2013-07-07 17:15:00,
2013-07-07 10:20:00,61.0,54.7,29.77,SW,219,7.0,10.0,80,0.00,,,0.00,788.0,meteohub,2013-07-07 17:20:00,
2013-07-07 10:25:00,61.0,54.5,29.78,SW,217,1.0,10.0,79,0.00,,,0.00,800.0,meteohub,2013-07-07 17:25:00,
2013-07-07 10:30:00,61.7,54.5,29.78,WNW,298,5.0,9.0,77,0.00,,,0.00,809.0,meteohub,2013-07-07 17:30:00,
2013-07-07 10:35:00,61.2,54.7,29.78,NW,304,2.0,9.0,79,0.00,,,0.00,722.0,meteohub,2013-07-07 17:35:00,
2013-07-07 10:40:00,61.5,54.3,29.78,NNW,327,2.0,10.0,77,0.00,,,0.00,802.0,meteohub,2013-07-07 17:40:00,
2013-07-07 10:45:00,61.5,54.3,29.78,SSW,194,5.0,10.0,77,0.00,,,0.00,814.0,meteohub,2013-07-07 17:45:00,
2013-07-07 10:50:00,61.3,53.8,29.78,West,273,3.0,10.0,76,0.00,,,0.00,826.0,meteohub,2013-07-07 17:50:00,
2013-07-07 10:55:00,61.9,54.7,29.78,WNW,292,2.0,11.0,77,0.00,,,0.00,833.0,meteohub,2013-07-07 17:55:00,
2013-07-07 11:00:00,61.3,54.1,29.78,WNW,292,4.0,11.0,77,0.00,,,0.00,840.0,meteohub,2013-07-07 18:00:00,
2013-07-07 11:05:00,61.9,54.7,29.78,South,173,3.0,11.0,77,0.00,,,0.00,856.0,meteohub,2013-07-07 18:05:00,
2013-07-07 11:10:00,61.7,54.5,29.78,WSW,241,5.0,12.0,77,0.00,,,0.00,865.0,meteohub,2013-07-07 18:10:00,
2013-07-07 11:15:00,61.9,54.7,29.78,SW,223,10.0,12.0,77,0.00,,,0.00,877.0,meteohub,2013-07-07 18:15:00,
2013-07-07 11:20:00,62.1,54.3,29.78,WSW,254,3.0,12.0,76,0.00,,,0.00,884.0,meteohub,2013-07-07 18:20:00,
2013-07-07 11:25:00,62.4,54.7,29.78,WNW,282,7.0,12.0,76,0.00,,,0.00,891.0,meteohub,2013-07-07 18:25:00,
2013-07-07 11:30:00,62.8,54.7,29.78,WNW,287,6.0,12.0,75,0.00,,,0.00,900.0,meteohub,2013-07-07 18:30:00,
2013-07-07 11:35:00,61.9,54.7,29.78,West,273,7.0,15.0,77,0.00,,,0.00,907.0,meteohub,2013-07-07 18:35:00,
2013-07-07 11:40:00,62.2,54.9,29.78,West,270,5.0,15.0,77,0.00,,,0.00,916.0,meteohub,2013-07-07 18:40:00,
2013-07-07 11:45:00,61.5,54.0,29.78,SW,226,13.0,15.0,76,0.00,,,0.00,921.0,meteohub,2013-07-07 18:45:00,
2013-07-07 11:50:00,61.9,54.9,29.78,East,96,2.0,15.0,78,0.00,,,0.00,935.0,meteohub,2013-07-07 18:50:00,
2013-07-07 11:55:00,62.4,54.3,29.78,WSW,239,13.0,15.0,75,0.00,,,0.00,935.0,meteohub,2013-07-07 18:55:00,
2013-07-07 12:00:00,61.9,54.7,29.78,WSW,242,7.0,18.0,77,0.00,,,0.00,949.0,meteohub,2013-07-07 19:00:00,
2013-07-07 12:05:00,62.4,55.0,29.78,WNW,296,3.0,18.0,77,0.00,,,0.00,954.0,meteohub,2013-07-07 19:05:00,
2013-07-07 12:10:00,62.1,54.7,29.78,WSW,250,5.0,18.0,77,0.00,,,0.00,956.0,meteohub,2013-07-07 19:10:00,
2013-07-07 12:15:00,61.9,54.7,29.78,WSW,241,10.0,16.0,77,0.00,,,0.00,965.0,meteohub,2013-07-07 19:15:00,
2013-07-07 12:20:00,62.4,54.7,29.78,SW,218,10.0,16.0,76,0.00,,,0.00,970.0,meteohub,2013-07-07 19:20:00,
2013-07-07 12:25:00,62.1,54.7,29.79,SW,223,13.0,17.0,77,0.00,,,0.00,986.0,meteohub,2013-07-07 19:25:00,
2013-07-07 12:30:00,62.2,54.5,29.78,West,273,4.0,17.0,76,0.00,,,0.00,984.0,meteohub,2013-07-07 19:30:00,
2013-07-07 12:35:00,62.1,55.0,29.78,WNW,294,5.0,17.0,78,0.00,,,0.00,990.0,meteohub,2013-07-07 19:35:00,
2013-07-07 12:40:00,62.8,55.0,29.78,West,270,4.0,17.0,76,0.00,,,0.00,1005.0,meteohub,2013-07-07 19:40:00,
2013-07-07 12:45:00,62.2,54.9,29.78,SW,236,14.0,17.0,77,0.00,,,0.00,986.0,meteohub,2013-07-07 19:45:00,
2013-07-07 12:50:00,61.7,54.5,29.78,WNW,292,12.0,19.0,77,0.00,,,0.00,988.0,meteohub,2013-07-07 19:50:00,
2013-07-07 12:55:00,62.6,54.9,29.78,WSW,250,10.0,19.0,76,0.00,,,0.00,991.0,meteohub,2013-07-07 19:55:00,
2013-07-07 13:00:00,62.2,54.5,29.78,WSW,251,13.0,19.0,76,0.00,,,0.00,984.0,meteohub,2013-07-07 20:00:00,
2013-07-07 13:05:00,62.2,55.2,29.77,SW,229,11.0,18.0,78,0.00,,,0.00,1005.0,meteohub,2013-07-07 20:05:00,
2013-07-07 13:10:00,62.8,55.0,29.77,SW,228,13.0,19.0,76,0.00,,,0.00,1000.0,meteohub,2013-07-07 20:10:00,
2013-07-07 13:15:00,63.5,55.4,29.77,SW,234,12.0,19.0,75,0.00,,,0.00,1009.0,meteohub,2013-07-07 20:15:00,
2013-07-07 13:20:00,62.4,54.3,29.77,West,273,7.0,20.0,75,0.00,,,0.00,1042.0,meteohub,2013-07-07 20:20:00,
2013-07-07 13:25:00,61.9,54.7,29.77,NW,306,2.0,20.0,77,0.00,,,0.00,979.0,meteohub,2013-07-07 20:25:00,
2013-07-07 13:30:00,62.2,54.9,29.78,SSW,201,14.0,20.0,77,0.00,,,0.00,698.0,meteohub,2013-07-07 20:30:00,
2013-07-07 13:35:00,62.2,54.9,29.77,WSW,240,9.0,20.0,77,0.00,,,0.00,981.0,meteohub,2013-07-07 20:35:00,
2013-07-07 13:40:00,62.2,54.9,29.77,WNW,291,11.0,20.0,77,0.00,,,0.00,1013.0,meteohub,2013-07-07 20:40:00,
2013-07-07 13:45:00,61.9,54.7,29.77,SW,223,5.0,17.0,77,0.00,,,0.00,1016.0,meteohub,2013-07-07 20:45:00,
2013-07-07 13:50:00,62.1,55.0,29.77,West,273,3.0,23.0,78,0.00,,,0.00,793.0,meteohub,2013-07-07 20:50:00,
2013-07-07 13:55:00,62.6,54.9,29.77,WSW,240,10.0,23.0,76,0.00,,,0.00,591.0,meteohub,2013-07-07 20:55:00,
2013-07-07 14:00:00,61.9,54.7,29.77,SW,236,13.0,17.0,77,0.00,,,0.00,698.0,meteohub,2013-07-07 21:00:00,
2013-07-07 14:05:00,61.5,54.9,29.77,WSW,254,10.0,19.0,79,0.00,,,0.00,1116.0,meteohub,2013-07-07 21:05:00,
2013-07-07 14:10:00,61.7,54.9,29.77,SW,227,6.0,19.0,78,0.00,,,0.00,1102.0,meteohub,2013-07-07 21:10:00,
2013-07-07 14:15:00,61.3,54.9,29.77,SW,232,4.0,24.0,79,0.00,,,0.00,905.0,meteohub,2013-07-07 21:15:00,
2013-07-07 14:20:00,61.3,54.9,29.77,SW,236,16.0,24.0,79,0.00,,,0.00,1065.0,meteohub,2013-07-07 21:20:00,
2013-07-07 14:25:00,61.3,54.9,29.77,West,263,7.0,24.0,79,0.00,,,0.00,788.0,meteohub,2013-07-07 21:25:00,
2013-07-07 14:30:00,61.7,54.9,29.76,SW,232,5.0,23.0,78,0.00,,,0.00,1063.0,meteohub,2013-07-07 21:30:00,
2013-07-07 14:35:00,61.3,54.9,29.76,WSW,256,13.0,23.0,79,0.00,,,0.00,1120.0,meteohub,2013-07-07 21:35:00,
2013-07-07 14:40:00,60.8,54.3,29.76,SW,225,13.0,24.0,79,0.00,,,0.00,1046.0,meteohub,2013-07-07 21:40:00,
2013-07-07 14:45:00,61.3,54.9,29.76,WSW,252,12.0,24.0,79,0.00,,,0.00,979.0,meteohub,2013-07-07 21:45:00,
2013-07-07 14:50:00,61.2,54.9,29.76,West,278,11.0,24.0,80,0.00,,,0.00,1030.0,meteohub,2013-07-07 21:50:00,
2013-07-07 14:55:00,61.3,54.9,29.76,SW,236,13.0,24.0,79,0.00,,,0.00,1039.0,meteohub,2013-07-07 21:55:00,
2013-07-07 15:00:00,62.1,55.4,29.76,SW,229,7.0,24.0,79,0.00,,,0.00,884.0,meteohub,2013-07-07 22:00:00,
2013-07-07 15:05:00,62.1,54.7,29.76,WNW,294,5.0,19.0,77,0.00,,,0.00,962.0,meteohub,2013-07-07 22:05:00,
2013-07-07 15:10:00,61.7,54.9,29.76,SSW,200,14.0,19.0,78,0.00,,,0.00,969.0,meteohub,2013-07-07 22:10:00,
2013-07-07 15:15:00,61.3,54.5,29.76,South,188,5.0,19.0,78,0.00,,,0.00,977.0,meteohub,2013-07-07 22:15:00,
2013-07-07 15:20:00,61.7,54.9,29.76,West,260,3.0,24.0,78,0.00,,,0.00,926.0,meteohub,2013-07-07 22:20:00,
2013-07-07 15:25:00,61.3,54.9,29.76,WNW,284,9.0,24.0,79,0.00,,,0.00,613.0,meteohub,2013-07-07 22:25:00,
2013-07-07 15:30:00,61.2,54.7,29.76,WNW,294,8.0,24.0,79,0.00,,,0.00,911.0,meteohub,2013-07-07 22:30:00,
2013-07-07 15:35:00,61.0,54.5,29.76,SW,217,14.0,24.0,79,0.00,,,0.00,1035.0,meteohub,2013-07-07 22:35:00,
2013-07-07 15:40:00,61.0,54.5,29.76,SW,234,17.0,24.0,79,0.00,,,0.00,896.0,meteohub,2013-07-07 22:40:00,
2013-07-07 15:45:00,60.4,54.3,29.75,WSW,243,17.0,26.0,80,0.00,,,0.00,900.0,meteohub,2013-07-07 22:45:00,
2013-07-07 15:50:00,60.3,54.3,29.75,SW,235,6.0,26.0,81,0.00,,,0.00,970.0,meteohub,2013-07-07 22:50:00,
2013-07-07 15:56:00,60.4,54.3,29.75,SW,216,17.0,26.0,80,0.00,,,0.00,715.0,meteohub,2013-07-07 22:56:00,
2013-07-07 16:01:00,60.6,54.7,29.75,WNW,292,3.0,24.0,81,0.00,,,0.00,726.0,meteohub,2013-07-07 23:01:00,
2013-07-07 16:06:00,60.8,54.7,29.75,WSW,240,15.0,24.0,80,0.00,,,0.00,912.0,meteohub,2013-07-07 23:06:00,
2013-07-07 16:11:00,60.8,54.7,29.75,SW,231,16.0,24.0,80,0.00,,,0.00,664.0,meteohub,2013-07-07 23:11:00,
2013-07-07 16:16:00,60.3,54.3,29.75,SW,229,11.0,26.0,81,0.00,,,0.00,631.0,meteohub,2013-07-07 23:16:00,
2013-07-07 16:21:00,60.1,54.5,29.75,SW,223,7.0,26.0,82,0.00,,,0.00,501.0,meteohub,2013-07-07 23:21:00,
2013-07-07 16:26:00,60.3,54.7,29.75,WSW,243,15.0,26.0,82,0.00,,,0.00,675.0,meteohub,2013-07-07 23:26:00,
2013-07-07 16:31:00,60.3,54.3,29.75,WSW,248,17.0,23.0,81,0.00,,,0.00,529.0,meteohub,2013-07-07 23:31:00,
2013-07-07 16:36:00,59.5,54.3,29.75,SSW,203,4.0,26.0,83,0.00,,,0.00,622.0,meteohub,2013-07-07 23:36:00,
2013-07-07 16:41:00,59.2,54.0,29.75,SSW,211,17.0,26.0,83,0.00,,,0.00,457.0,meteohub,2013-07-07 23:41:00,
2013-07-07 16:46:00,59.2,54.3,29.74,WSW,239,12.0,26.0,84,0.00,,,0.00,489.0,meteohub,2013-07-07 23:46:00,
2013-07-07 16:51:00,59.0,54.1,29.74,SSW,207,14.0,24.0,84,0.00,,,0.00,752.0,meteohub,2013-07-07 23:51:00,
2013-07-07 16:56:00,59.2,54.3,29.74,NW,309,4.0,24.0,84,0.00,,,0.00,773.0,meteohub,2013-07-07 23:56:00,
2013-07-07 17:01:00,59.5,54.3,29.74,SW,234,17.0,24.0,83,0.00,,,0.00,420.0,meteohub,2013-07-08 00:01:00,
2013-07-07 17:06:00,59.2,54.3,29.74,SW,236,11.0,24.0,84,0.00,,,0.00,374.0,meteohub,2013-07-08 00:06:00,
2013-07-07 17:11:00,58.8,54.0,29.74,WSW,241,10.0,23.0,84,0.00,,,0.00,320.0,meteohub,2013-07-08 00:11:00,
2013-07-07 17:16:00,58.6,54.1,29.74,SSW,213,12.0,26.0,85,0.00,,,0.00,329.0,meteohub,2013-07-08 00:16:00,
2013-07-07 17:21:00,58.1,54.0,29.74,WSW,258,8.0,26.0,86,0.00,,,0.00,283.0,meteohub,2013-07-08 00:21:00,
2013-07-07 17:26:00,58.3,54.1,29.74,NW,312,3.0,26.0,86,0.00,,,0.00,330.0,meteohub,2013-07-08 00:26:00,
2013-07-07 17:31:00,58.5,54.0,29.74,WSW,242,10.0,25.0,85,0.00,,,0.00,308.0,meteohub,2013-07-08 00:31:00,
2013-07-07 17:36:00,58.3,53.8,29.74,SW,234,6.0,25.0,85,0.00,,,0.00,475.0,meteohub,2013-07-08 00:36:00,
2013-07-07 17:41:00,58.5,54.0,29.74,SSW,205,5.0,25.0,85,0.00,,,0.00,306.0,meteohub,2013-07-08 00:41:00,
2013-07-07 17:46:00,58.5,54.0,29.74,West,261,6.0,21.0,85,0.00,,,0.00,257.0,meteohub,2013-07-08 00:46:00,
2013-07-07 17:51:00,58.3,54.1,29.74,SSW,213,5.0,19.0,86,0.00,,,0.00,220.0,meteohub,2013-07-08 00:51:00,
2013-07-07 17:56:00,58.1,54.0,29.74,WSW,238,19.0,19.0,86,0.00,,,0.00,265.0,meteohub,2013-07-08 00:56:00,
2013-07-07 18:01:00,57.9,53.8,29.73,SW,222,6.0,23.0,86,0.00,,,0.00,190.0,meteohub,2013-07-08 01:01:00,
2013-07-07 18:06:00,57.7,54.0,29.74,West,270,9.0,23.0,87,0.00,,,0.00,192.0,meteohub,2013-07-08 01:06:00,
2013-07-07 18:11:00,57.6,53.8,29.74,SSE,157,1.0,20.0,87,0.00,,,0.00,176.0,meteohub,2013-07-08 01:11:00,
2013-07-07 18:16:00,57.4,53.8,29.74,West,273,6.0,20.0,88,0.00,,,0.00,172.0,meteohub,2013-07-08 01:16:00,
2013-07-07 18:21:00,57.4,53.8,29.74,WSW,241,7.0,17.0,88,0.00,,,0.00,149.0,meteohub,2013-07-08 01:21:00,
2013-07-07 18:26:00,57.4,53.8,29.74,SW,229,16.0,17.0,88,0.00,,,0.00,146.0,meteohub,2013-07-08 01:26:00,
2013-07-07 18:31:00,57.2,53.6,29.74,SSW,206,5.0,17.0,88,0.00,,,0.00,148.0,meteohub,2013-07-08 01:31:00,
2013-07-07 18:36:00,57.4,53.8,29.74,WSW,250,3.0,18.0,88,0.00,,,0.00,132.0,meteohub,2013-07-08 01:36:00,
2013-07-07 18:41:00,57.4,53.8,29.74,SW,223,2.0,18.0,88,0.00,,,0.00,121.0,meteohub,2013-07-08 01:41:00,
2013-07-07 18:46:00,57.4,53.8,29.74,WSW,244,4.0,17.0,88,0.00,,,0.00,102.0,meteohub,2013-07-08 01:46:00,
2013-07-07 18:51:00,57.0,53.8,29.74,SW,219,11.0,19.0,89,0.00,,,0.00,90.0,meteohub,2013-07-08 01:51:00,
2013-07-07 18:56:00,56.8,53.6,29.74,NW,310,13.0,22.0,89,0.00,,,0.00,90.0,meteohub,2013-07-08 01:56:00,
2013-07-07 19:01:00,56.7,53.8,29.74,SW,225,16.0,22.0,90,0.00,,,0.00,88.0,meteohub,2013-07-08 02:01:00,
2013-07-07 19:06:00,56.7,53.8,29.74,NNW,329,4.0,20.0,90,0.00,,,0.00,86.0,meteohub,2013-07-08 02:06:00,
2013-07-07 19:11:00,56.7,53.8,29.75,WSW,238,11.0,20.0,90,0.00,,,0.00,67.0,meteohub,2013-07-08 02:11:00,
2013-07-07 19:16:00,56.7,53.8,29.75,SW,227,12.0,19.0,90,0.00,,,0.00,69.0,meteohub,2013-07-08 02:16:00,
2013-07-07 19:21:00,56.5,53.6,29.75,WSW,239,13.0,18.0,90,0.00,,,0.00,65.0,meteohub,2013-07-08 02:21:00,
2013-07-07 19:26:00,56.5,53.6,29.75,WSW,241,9.0,20.0,90,0.00,,,0.00,54.0,meteohub,2013-07-08 02:26:00,
2013-07-07 19:31:00,56.3,53.8,29.75,West,277,1.0,20.0,91,0.00,,,0.00,42.0,meteohub,2013-07-08 02:31:00,
2013-07-07 19:36:00,56.3,53.8,29.75,SW,228,9.0,20.0,91,0.00,,,0.00,35.0,meteohub,2013-07-08 02:36:00,
2013-07-07 19:41:00,56.3,53.8,29.75,WNW,301,5.0,16.0,91,0.00,,,0.00,23.0,meteohub,2013-07-08 02:41:00,
2013-07-07 19:46:00,56.1,53.6,29.75,SW,229,9.0,16.0,91,0.00,,,0.00,19.0,meteohub,2013-07-08 02:46:00,
2013-07-07 19:51:00,55.9,53.6,29.75,NW,324,7.0,16.0,92,0.00,,,0.00,18.0,meteohub,2013-07-08 02:51:00,
2013-07-07 19:57:00,55.9,53.6,29.75,WSW,245,9.0,19.0,92,0.00,,,0.00,16.0,meteohub,2013-07-08 02:57:00,
2013-07-07 20:01:00,55.9,53.6,29.75,West,265,6.0,19.0,92,0.00,,,0.00,12.0,meteohub,2013-07-08 03:01:00,
2013-07-07 20:07:00,55.9,53.6,29.75,WNW,288,10.0,19.0,92,0.00,,,0.00,11.0,meteohub,2013-07-08 03:07:00,
2013-07-07 20:12:00,55.9,53.6,29.76,West,264,7.0,17.0,92,0.00,,,0.00,9.0,meteohub,2013-07-08 03:12:00,
2013-07-07 20:17:00,55.8,53.4,29.76,SW,227,9.0,17.0,92,0.00,,,0.00,7.0,meteohub,2013-07-08 03:17:00,
2013-07-07 20:22:00,55.8,53.4,29.76,SW,228,6.0,18.0,92,0.00,,,0.00,5.0,meteohub,2013-07-08 03:22:00,
2013-07-07 20:27:00,55.8,53.4,29.76,WSW,254,7.0,18.0,92,0.00,,,0.00,5.0,meteohub,2013-07-08 03:27:00,
2013-07-07 20:32:00,55.6,53.2,29.76,West,263,9.0,21.0,92,0.00,,,0.00,0.0,meteohub,2013-07-08 03:32:00,
2013-07-07 20:37:00,55.6,53.2,29.76,WNW,294,9.0,21.0,92,0.00,,,0.00,0.0,meteohub,2013-07-08 03:37:00,
2013-07-07 20:42:00,55.6,53.2,29.76,SW,220,8.0,21.0,92,0.00,,,0.00,0.0,meteohub,2013-07-08 03:42:00,
2013-07-07 20:47:00,55.6,53.2,29.76,WNW,289,6.0,17.0,92,0.00,,,0.00,0.0,meteohub,2013-07-08 03:47:00,
2013-07-07 20:52:00,55.6,53.2,29.76,WNW,286,7.0,18.0,92,0.00,,,0.00,0.0,meteohub,2013-07-08 03:52:00,
2013-07-07 20:57:00,55.6,53.2,29.77,SSW,193,9.0,18.0,92,0.00,,,0.00,0.0,meteohub,2013-07-08 03:57:00,
2013-07-07 21:01:00,55.4,53.1,29.77,SSW,213,7.0,17.0,92,0.00,,,0.00,0.0,meteohub,2013-07-08 04:01:00,
2013-07-07 21:06:00,55.4,53.1,29.77,West,277,8.0,17.0,92,0.00,,,0.00,0.0,meteohub,2013-07-08 04:06:00,
2013-07-07 21:11:00,55.2,52.9,29.77,WSW,237,3.0,17.0,92,0.00,,,0.00,0.0,meteohub,2013-07-08 04:11:00,
2013-07-07 21:16:00,55.2,53.2,29.78,West,275,3.0,17.0,93,0.00,,,0.00,0.0,meteohub,2013-07-08 04:16:00,
2013-07-07 21:21:00,55.2,53.2,29.78,WSW,241,2.0,17.0,93,0.00,,,0.00,0.0,meteohub,2013-07-08 04:21:00,
2013-07-07 21:26:00,55.2,53.2,29.78,West,262,6.0,17.0,93,0.00,,,0.00,0.0,meteohub,2013-07-08 04:26:00,
2013-07-07 21:31:00,55.2,53.2,29.78,SW,234,7.0,15.0,93,0.00,,,0.00,0.0,meteohub,2013-07-08 04:31:00,
2013-07-07 21:36:00,55.2,53.2,29.78,WSW,253,11.0,15.0,93,0.00,,,0.00,0.0,meteohub,2013-07-08 04:36:00,
2013-07-07 21:41:00,55.2,53.2,29.78,West,264,2.0,16.0,93,0.00,,,0.00,0.0,meteohub,2013-07-08 04:41:00,
2013-07-07 21:46:00,55.0,53.1,29.79,West,264,15.0,17.0,93,0.00,,,0.00,0.0,meteohub,2013-07-08 04:46:00,
2013-07-07 21:51:00,55.0,53.1,29.79,West,266,7.0,17.0,93,0.00,,,0.00,0.0,meteohub,2013-07-08 04:51:00,
2013-07-07 21:56:00,55.0,53.1,29.79,SW,227,13.0,17.0,93,0.00,,,0.00,0.0,meteohub,2013-07-08 04:56:00,
2013-07-07 22:01:00,55.0,53.1,29.79,WSW,254,7.0,17.0,93,0.00,,,0.00,0.0,meteohub,2013-07-08 05:01:00,
2013-07-07 22:06:00,55.0,53.1,29.79,WSW,257,5.0,16.0,93,0.00,,,0.00,0.0,meteohub,2013-07-08 05:06:00,
2013-07-07 22:11:00,55.0,53.1,29.79,SW,234,7.0,23.0,93,0.00,,,0.00,0.0,meteohub,2013-07-08 05:11:00,
2013-07-07 22:16:00,54.9,52.9,29.79,WSW,244,11.0,23.0,93,0.00,,,0.00,0.0,meteohub,2013-07-08 05:16:00,
2013-07-07 22:21:00,54.9,53.2,29.79,SSW,202,6.0,23.0,94,0.00,,,0.00,0.0,meteohub,2013-07-08 05:21:00,
2013-07-07 22:26:00,54.9,53.2,29.79,SW,217,3.0,18.0,94,0.00,,,0.00,0.0,meteohub,2013-07-08 05:26:00,
2013-07-07 22:31:00,54.9,53.2,29.79,West,274,3.0,18.0,94,0.00,,,0.00,0.0,meteohub,2013-07-08 05:31:00,
2013-07-07 22:36:00,54.9,53.2,29.79,WNW,294,4.0,18.0,94,0.00,,,0.00,0.0,meteohub,2013-07-08 05:36:00,
2013-07-07 22:41:00,54.9,53.2,29.79,WSW,238,11.0,15.0,94,0.00,,,0.00,0.0,meteohub,2013-07-08 05:41:00,
2013-07-07 22:46:00,54.7,53.1,29.79,WSW,256,10.0,17.0,94,0.00,,,0.00,0.0,meteohub,2013-07-08 05:46:00,
2013-07-07 22:51:00,54.7,53.1,29.80,WSW,249,2.0,17.0,94,0.00,,,0.00,0.0,meteohub,2013-07-08 05:51:00,
2013-07-07 22:56:00,54.7,53.1,29.80,WNW,287,9.0,17.0,94,0.00,,,0.00,0.0,meteohub,2013-07-08 05:56:00,
2013-07-07 23:01:00,54.7,53.1,29.80,WSW,240,5.0,13.0,94,0.00,,,0.00,0.0,meteohub,2013-07-08 06:01:00,
2013-07-07 23:06:00,54.5,52.9,29.80,West,262,6.0,14.0,94,0.00,,,0.00,0.0,meteohub,2013-07-08 06:06:00,
2013-07-07 23:11:00,54.7,53.1,29.80,WSW,255,3.0,14.0,94,0.00,,,0.00,0.0,meteohub,2013-07-08 06:11:00,
2013-07-07 23:16:00,54.5,52.9,29.80,SW,225,4.0,14.0,94,0.00,,,0.00,0.0,meteohub,2013-07-08 06:16:00,
2013-07-07 23:21:00,54.7,53.1,29.80,WSW,240,4.0,13.0,94,0.00,,,0.00,0.0,meteohub,2013-07-08 06:21:00,
2013-07-07 23:26:00,54.7,53.1,29.80,West,273,5.0,16.0,94,0.00,,,0.00,0.0,meteohub,2013-07-08 06:26:00,
2013-07-07 23:31:00,54.7,53.1,29.80,WSW,242,4.0,16.0,94,0.00,,,0.00,0.0,meteohub,2013-07-08 06:31:00,
2013-07-07 23:36:00,54.7,53.1,29.80,SW,236,5.0,16.0,94,0.00,,,0.00,0.0,meteohub,2013-07-08 06:36:00,
2013-07-07 23:41:00,54.7,53.1,29.80,West,265,6.0,14.0,94,0.00,,,0.00,0.0,meteohub,2013-07-08 06:41:00,
2013-07-07 23:46:00,54.7,53.1,29.80,WSW,240,18.0,18.0,94,0.00,,,0.00,0.0,meteohub,2013-07-08 06:46:00,
2013-07-07 23:51:00,54.5,52.9,29.80,SW,223,8.0,18.0,94,0.00,,,0.00,0.0,meteohub,2013-07-08 06:51:00,
2013-07-07 23:56:00,54.5,52.9,29.80,WSW,240,6.0,19.0,94,0.00,,,0.00,0.0,meteohub,2013-07-08 06:56:00,